DW2258 Weather Reports


time (UTC)temp
C
wind
direction
speed
KPH
gust
KPH
rain 1hr
cm
rain 24hr
cm
rain mn
cm
humidity
%
barometer
mb
20260508121635 7 285 14.5 29.0 0.00 0.00 0.00 75 1006.6
20260508120156 7 273 17.7 27.4 0.00 0.00 0.00 75 1006.6
20260508114655 7 297 17.7 24.1 0.00 0.00 0.00 73 1006.5
20260508113135 7 275 14.5 24.1 0.00 0.00 0.00 74 1006.5
20260508111635 7 295 16.1 22.5 0.00 0.00 0.00 74 1006.4
20260508110140 6 306 11.3 20.9 0.00 0.00 0.00 75 1006.4
20260508104701 6 317 11.3 20.9 0.00 0.00 0.00 75 1006.1
20260508103139 6 311 11.3 22.5 0.00 0.00 0.00 75 1005.8
20260508101644 6 301 9.7 19.3 0.00 0.00 0.00 75 1005.6
20260508100205 6 280 9.7 16.1 0.00 0.00 0.00 75 1005.5
20260508094648 5 309 8.0 14.5 0.00 0.00 0.00 76 1005.4
20260508093148 5 312 8.0 14.5 0.00 0.00 0.00 76 1005.4
20260508091631 5 330 8.0 16.1 0.00 0.00 0.00 77 1005.4
20260508090130 5 299 9.7 12.9 0.00 0.00 0.00 76 1005.3
20260508084635 5 347 3.2 6.4 0.00 0.00 0.00 76 1005.3
20260508083135 5 342 4.8 12.9 0.00 0.00 0.00 75 1005.2
20260508081634 5 297 9.7 12.9 0.00 0.00 0.00 75 1005.0
20260508080135 6 333 6.4 9.7 0.00 0.00 0.00 73 1005.1
20260508074635 6 343 4.8 8.0 0.00 0.03 0.00 73 1005.0
20260508073140 6 300 3.2 6.4 0.00 0.03 0.00 72 1005.0
20260508071642 6 310 6.4 8.0 0.00 0.03 0.00 71 1005.0
20260508070202 6 295 4.8 9.7 0.00 0.03 0.00 71 1005.0
20260508064643 6 289 8.0 11.3 0.00 0.13 0.00 70 1005.1
20260508063202 6 305 4.8 8.0 0.00 0.13 0.00 70 1005.0
20260508061644 6 271 1.6 4.8 0.00 0.13 0.00 73 1005.0
20260508060146 7 301 4.8 6.4 0.00 0.13 0.00 72 1005.1
20260508054647 6 302 1.6 6.4 0.00 0.18 0.00 72 1005.3
20260508053207 6 283 4.8 8.0 0.00 0.18 0.00 72 1005.3
20260508051648 6 315 1.6 9.7 0.00 0.18 0.00 72 1005.3
20260508050130 7 359 3.2 8.0 0.00 0.18 0.00 70 1005.4
20260508044629 7 347 6.4 11.3 0.00 0.18 0.18 68 1005.4
20260508043129 7 343 3.2 6.4 0.00 0.18 0.18 70 1005.5
20260508041632 7 354 1.6 4.8 0.00 0.18 0.18 71 1005.7
20260508040133 7 318 4.8 17.7 0.00 0.18 0.18 70 1005.7
20260508034653 7 354 8.0 16.1 0.00 0.20 0.18 69 1005.6
20260508033153 8 342 9.7 20.9 0.00 0.20 0.18 69 1005.6
20260508031633 8 330 16.1 29.0 0.00 0.20 0.18 68 1005.4
20260508030136 8 348 9.7 19.3 0.00 0.20 0.18 68 1005.4
20260508024635 8 340 12.9 27.4 0.00 0.46 0.18 65 1005.3
20260508023135 8 314 12.9 32.2 0.00 0.46 0.18 66 1005.1
20260508021630 8 325 14.5 33.8 0.00 0.46 0.18 67 1005.2
20260508020130 9 317 17.7 27.4 0.00 0.46 0.18 69 1005.2
20260508014635 9 343 17.7 32.2 0.00 0.66 0.18 77 1005.4
20260508013135 8 354 12.9 22.5 0.00 0.66 0.18 83 1005.3
20260508011634 8 324 14.5 24.1 0.00 0.66 0.18 84 1005.1
20260508010133 9 354 16.1 20.9 0.00 0.66 0.18 83 1005.0
20260508004655 8 8 11.3 22.5 0.00 0.66 0.18 83 1004.7
20260508003134 8 335 12.9 19.3 0.00 0.66 0.18 86 1004.6
20260508001635 7 228 11.3 27.4 0.00 0.66 0.18 87 1003.9
20260508000134 7 253 17.7 27.4 0.00 0.66 0.18 86 1003.7
20260507234655 7 240 14.5 24.1 0.00 0.66 0.18 88 1003.7
20260507233138 7 211 16.1 25.7 0.00 0.66 0.18 88 1003.6
20260507231637 7 241 17.7 27.4 0.00 0.66 0.18 88 1003.5
20260507230136 7 236 14.5 24.1 0.00 0.66 0.18 87 1003.4
20260507224635 7 212 16.1 24.1 0.00 0.66 0.18 86 1003.3
20260507223139 7 228 14.5 30.6 0.00 0.66 0.18 87 1003.0
20260507221639 7 241 16.1 33.8 0.00 0.66 0.18 86 1003.1
20260507220139 7 240 17.7 29.0 0.00 0.66 0.18 87 1003.1
20260507214639 8 218 12.9 27.4 0.00 0.66 0.18 85 1003.3
20260507213200 8 213 19.3 30.6 0.00 0.66 0.18 84 1003.3
20260507211702 8 200 24.1 37.0 0.00 0.66 0.18 85 1003.2
20260507210143 8 227 24.1 35.4 0.00 0.66 0.18 85 1003.2
20260507204642 8 216 20.9 38.6 0.00 0.66 0.18 84 1003.1
20260507203142 8 237 22.5 38.6 0.00 0.66 0.18 84 1003.1
20260507201642 8 219 20.9 32.2 0.00 0.66 0.18 85 1003.2
20260507200147 8 216 20.9 32.2 0.00 0.66 0.18 85 1003.2
20260507194646 9 239 20.9 29.0 0.00 0.66 0.18 84 1003.2
20260507193144 8 246 19.3 32.2 0.00 0.66 0.18 85 1003.3
20260507191644 9 219 16.1 27.4 0.00 0.66 0.18 84 1003.2
20260507190147 9 207 17.7 30.6 0.00 0.66 0.18 84 1003.2
20260507184708 9 266 17.7 35.4 0.00 0.66 0.18 84 1003.4
20260507183148 9 208 12.9 29.0 0.00 0.66 0.18 87 1003.5
20260507181629 8 189 16.1 30.6 0.00 0.66 0.18 86 1003.6
20260507180210 9 196 12.9 25.7 0.00 0.66 0.18 87 1003.7
20260507174632 8 210 8.0 20.9 0.00 0.66 0.18 88 1003.7
20260507173134 8 188 16.1 24.1 0.00 0.66 0.18 86 1003.8
20260507171657 8 171 11.3 25.7 0.00 0.66 0.18 87 1003.7
20260507170134 9 245 9.7 17.7 0.00 0.66 0.18 87 1003.9
20260507164640 8 214 12.9 22.5 0.00 0.66 0.18 87 1004.1
20260507163139 9 196 9.7 17.7 0.00 0.66 0.18 87 1004.1
20260507161637 10 243 6.4 16.1 0.00 0.66 0.18 85 1004.1
20260507160139 9 220 9.7 17.7 0.00 0.66 0.18 85 1004.3
20260507154638 10 191 9.7 16.1 0.00 0.66 0.18 83 1004.6
20260507153141 10 201 8.0 12.9 0.00 0.66 0.18 81 1004.8
20260507151640 11 280 11.3 14.5 0.00 0.66 0.18 80 1005.0
20260507150140 11 285 6.4 14.5 0.00 0.66 0.18 83 1004.7
20260507144639 10 309 9.7 17.7 0.00 0.66 0.18 84 1004.7
20260507143142 10 319 11.3 16.1 0.00 0.66 0.18 84 1004.8
20260507141643 10 307 8.0 17.7 0.00 0.66 0.18 88 1005.2
20260507140142 9 328 11.3 19.3 0.00 0.66 0.18 90 1005.4
20260507134642 8 324 8.0 16.1 0.00 0.66 0.18 92 1005.3
20260507133147 8 270 3.2 14.5 0.00 0.66 0.18 92 1006.2
20260507131646 8 324 4.8 12.9 0.00 0.66 0.18 93 1005.3
20260507130206 8 323 3.2 12.9 0.00 0.66 0.18 93 1005.3
20260507124707 8 298 6.4 14.5 0.00 0.66 0.18 94 1005.8
20260507123147 7 12 6.4 14.5 0.00 0.66 0.18 94 1005.3